[[{"header":{"parameterUnit":"m.s-1","parameterCategory":1,"la1":30.2992,"la2":30.254,"lo1":-89.0895,"lo2":-89.0443,"dy":0.0025,"dx":0.0025,"nx":19,"ny":19,"refTime":"2026-05-21T09:00:00:Z","depth":0,"parameterNumber":2,"parameterNumberName":"U-component_of_WINDS"},"data":[0,0,0,-4.2819,-4.2822,-4.294,-4.294,-4.3094,-4.3095,0,0,0,0,0,0,0,0,0,0,0,-4.2789,-4.279,-4.2819,-4.2822,-4.294,-4.294,-4.3093,-4.3095,0,0,0,0,0,0,0,0,0,0,0,-4.2788,-4.279,-4.2791,-4.2823,-4.294,-4.294,-4.3093,-4.3002,0,0,0,0,0,0,0,0,0,0,-4.2887,-4.2864,-4.2789,-4.2791,-4.2823,-4.294,-4.294,-4.2998,-4.3008,-4.3042,0,-4.3076,0,-4.3088,-4.3106,-4.3106,0,0,0,-4.2818,-4.2856,-4.2884,-4.2791,-4.2824,-4.2939,-4.2886,-4.3004,-4.3015,-4.3056,-4.3078,-4.3084,-4.3091,-4.3107,-4.3108,-4.3321,-4.3322,0,0,-4.2812,-4.2812,-4.2876,-4.2892,-4.2876,-4.2882,-4.2889,-4.301,-4.3034,-4.3079,-4.3087,-4.3093,-4.3108,-4.3109,-4.332,-4.3321,0,0,0,-4.2796,-4.2807,-4.2832,-4.2885,-4.2907,-4.2885,-4.2894,-4.3029,-4.3037,-4.3089,-4.3095,-4.3109,-4.3111,-4.3318,-4.332,-4.3377,0,0,0,-4.2791,-4.2798,-4.283,-4.2831,-4.2905,-4.297,-4.291,-4.3029,-4.3042,-4.3094,-4.3109,-4.3112,-4.3317,-4.3319,-4.3372,-4.3402,0,0,0,-4.2779,-4.2796,-4.2815,-4.2831,-4.2882,-4.2968,-4.2983,-4.3032,-4.3046,-4.3106,-4.3113,-4.3316,-4.3319,-4.3369,-4.3396,-4.3456,0,0,0,-4.2766,-4.2865,-4.2816,-4.2929,-4.2881,-4.3004,-4.2982,-4.3073,-4.3132,-4.311,-4.3317,-4.332,-4.3367,-4.3392,-4.3452,-4.3504,-4.3527,0,0,-4.2891,-4.288,-4.2946,-4.2906,-4.3037,-4.2985,-4.3124,-4.3178,-4.3183,-4.3274,-4.3279,-4.3374,-4.3396,-4.3455,-4.3661,-4.3679,0,0,0,-4.2985,-4.3032,-4.3067,-4.3124,-4.3168,-4.3206,-4.3238,-4.3258,-4.3335,-4.3231,-4.3413,-4.3426,-4.3461,-4.3486,-4.3501,-4.3529,-4.3332,-4.3332,-4.3332,-4.316,-4.3162,-4.327,-4.3286,-4.3341,-4.3372,-4.3415,-4.3446,-4.3433,-4.3475,-4.3501,-4.3626,-4.3655,-4.3667,-4.3696,-4.3532,-4.3532,-4.3533,-4.3533,-4.334,-4.3405,-4.3384,-4.3481,-4.3482,-4.3563,-4.3596,-4.3583,-4.3656,-4.3607,-4.3638,-4.3581,-4.3687,-4.3712,-4.3537,-4.3536,-4.3536,-4.3535,-4.3535,-4.3451,-4.3483,-4.3506,-4.3585,-4.3646,-4.3658,-4.3729,-4.3728,-4.3727,-4.3757,-4.3782,-4.3781,-4.3777,-4.377,-4.377,-4.3771,-4.3771,-4.3772,-4.3772,-4.3557,-4.3581,-4.3642,-4.3696,-4.373,-4.3775,-4.3807,-4.384,-4.3876,-4.3868,-4.3869,-4.3848,-4.3699,-4.3659,-4.3778,-4.3777,-4.3776,-4.3776,-4.3775,-4.3733,-4.3693,-4.3787,-4.3821,-4.3882,-4.3941,-4.3939,-4.4006,-4.4033,-4.4067,-4.404,-4.3931,-4.3919,-4.3907,-4.3874,-4.4042,-4.4042,-4.4042,-4.4042,-4.3824,-4.3819,-4.3913,-4.3968,-4.4021,-4.4028,-4.413,-4.4155,-4.4174,-4.419,-4.4166,-4.4124,-4.4111,-4.4106,-4.409,-4.4058,-4.427,-4.427,-4.427,-4.3931,-4.393,-4.4019,-4.4038,-4.4086,-4.4125,-4.422,-4.4281,-4.4295,-4.428,-4.4202,-4.4192,-4.4123,-4.4101,-4.4081,-4.4056,-4.3998,0,0]},{"header":{"parameterUnit":"m.s-1","parameterCategory":1,"la1":30.2992,"la2":30.254,"lo1":-89.0895,"lo2":-89.0443,"dy":0.0025,"dx":0.0025,"nx":19,"ny":19,"refTime":"2026-05-21T09:00:00:Z","depth":0,"parameterNumber":3,"parameterNumberName":"V-component_of_WINDS"},"data":[0,0,0,3.8211,3.8216,3.8416,3.8417,3.8674,3.8676,0,0,0,0,0,0,0,0,0,0,0,3.8151,3.8152,3.8211,3.8216,3.8416,3.8417,3.8673,3.8676,0,0,0,0,0,0,0,0,0,0,0,3.815,3.8152,3.8154,3.8217,3.8416,3.8417,3.8673,3.8522,0,0,0,0,0,0,0,0,0,0,3.8327,3.8269,3.8151,3.8154,3.8218,3.8416,3.8417,3.8514,3.8531,3.8582,0,3.8627,0,3.8655,3.8693,3.8694,0,0,0,3.8217,3.8255,3.8311,3.8154,3.822,3.8416,3.8326,3.8524,3.8543,3.8605,3.863,3.864,3.866,3.8695,3.8696,3.8986,3.8987,0,0,3.8206,3.8186,3.8298,3.8323,3.8291,3.832,3.8333,3.8535,3.8562,3.8631,3.8646,3.8664,3.8696,3.8698,3.8985,3.8986,0,0,0,3.8174,3.8178,3.8229,3.8312,3.8348,3.8326,3.834,3.8553,3.8571,3.8649,3.8667,3.8698,3.8701,3.8983,3.8985,3.903,0,0,0,3.8167,3.8159,3.8224,3.8214,3.8344,3.8453,3.8354,3.8557,3.8581,3.8666,3.8698,3.8703,3.8982,3.8984,3.9025,3.9054,0,0,0,3.8138,3.8156,3.8185,3.8212,3.8298,3.845,3.848,3.8563,3.8592,3.8694,3.8704,3.8981,3.8984,3.9022,3.9048,3.9125,0,0,0,3.8102,3.8221,3.8185,3.8326,3.8296,3.8476,3.8479,3.8614,3.8707,3.8699,3.8982,3.8985,3.902,3.9044,3.912,3.9185,3.921,0,0,3.8242,3.8237,3.8322,3.8295,3.8477,3.8447,3.8636,3.874,3.8769,3.8912,3.892,3.9027,3.9047,3.9124,3.9359,3.9379,0,0,0,3.836,3.842,3.8473,3.856,3.8642,3.8715,3.8793,3.8832,3.8955,3.8838,3.9076,3.9089,3.9135,3.9167,3.9184,3.9224,3.8999,3.8999,3.8998,3.8528,3.8558,3.87,3.8755,3.884,3.8919,3.8991,3.9057,3.9062,3.9118,3.9161,3.93,3.9337,3.935,3.9392,3.9198,3.9198,3.9198,3.9199,3.8736,3.8826,3.8831,3.8971,3.9002,3.912,3.9202,3.9202,3.9317,3.927,3.9312,3.9257,3.937,3.9409,3.9202,3.9202,3.9201,3.9201,3.92,3.8849,3.8898,3.8943,3.9073,3.917,3.9222,3.9333,3.9358,3.9382,3.9424,3.9472,3.9471,3.9474,3.9445,3.9445,3.9446,3.9446,3.9447,3.9447,3.8949,3.8999,3.9088,3.9186,3.9246,3.9329,3.9411,3.9471,3.9544,3.9554,3.9555,3.9555,3.9376,3.933,3.9455,3.9453,3.9452,3.9451,3.9451,3.9147,3.9107,3.9245,3.9305,3.9423,3.9519,3.955,3.967,3.9724,3.9778,3.9771,3.9634,3.9632,3.9619,3.9581,3.9763,3.9763,3.9763,3.9763,3.9243,3.9244,3.9391,3.9486,3.9582,3.9624,3.9781,3.9847,3.9909,3.9945,3.9922,3.9875,3.986,3.9867,3.9848,3.9813,4.0051,4.0051,4.0051,3.9367,3.9379,3.9506,3.9565,3.966,3.9741,3.989,4.0,4.0062,4.0063,3.9973,3.9961,3.9885,3.9858,3.9855,3.9826,3.9763,0,0]}]]